Location: Mat�lon
(46.2791°N, 7.1028°E)
Time: 06:25:39
(UTC+00:00)

NOSS 8 (F) - Pass Details

Date: 18 September 2020
Orbit: 385 x 1787 km, 63.3° (Epoch: 23 October)

Event Time Altitude Azimuth Distance (km) Brightness Sun altitude
Rises 18:04:43 0° 218° (SW) 2,533 8.6 -5.7°
Reaches altitude 10° 18:06:59 10° 218° (SW) 1,544 7.5 -6.1°
Maximum altitude 18:10:15 90° 333° (NNW) 402 4.1 -6.6°
Drops below altitude 10° 18:13:15 10° 39° (NE) 1,418 6.6 -7.1°
Sets 18:15:15 0° 39° (NE) 2,299 7.7 -7.5°
